7 * 24
多渠道服务支持
FENGYUN 1C(风云一号C星)是中国1999年5月10日发射的第一代极轨气象卫星,轨道高度约862km,降交点过赤道为北京时间07:00,搭载了多通道可见红外扫描辐射计(MVISR)。它服务于全球气象观测、预报和灾害监测,被纳入全球对地观测业务卫星序列,填补了我国长期极轨气象观测空白,支撑了气象预报精度提升,为后续风云卫星发展奠定技术基础,2004年4月停止运行,是我国气象卫星从试验走向业务的关键一步。
中国
(CN)
| 数据来源 | 国际轨道数据 |
| 星历时间: | 2026-06-12T12:26:52+0800 15小时前 查看轨道信息 |
| 半长轴: | 7179.846km |
| 偏心率: | 0.0009448 |
| 轨道倾角: | 98.864° |
| 近地点辐角 | 266.276° |
| 升交点赤经 | 236.643° |
| 平近点角 | 93.734° |
| 近地点: | 794.925km |
| 远地点: | 808.493km |
| 周期: | 100.910分钟 |
| 每日圈数: | 14.270201 |